ROMMA est une association bénévole à but non lucratif. Votre soutien est indispensable : ADHERER à ROMMA ou FAIRE un DON

Val-d'Arly - (73, Savoie)

Beaufortain (2050 m)   Longitude: 06° 35' 21" E   Latitude: 45° 46' 53" N Station romma n°118
 

Détail journalier du     <<     >>

Température Humidité Vent Dir Rafale Dir. rafale Ensol.
Heure (°C) (%) (km/h) (km/h) (min)
01:00 -4.2775---18---0
02:00 -4.8832---10---0
03:00 -4.9828---16---0
04:00 -4.97910---15---0
05:00 -5.2869---15---0
06:00 -5.1856---10---0
07:00 -6.0946---13---0
08:00 -5.6939---18---0
09:00 -5.7938---15---50
10:00 -5.39314---23---40
11:00 -5.19316---21---10
12:00 -4.59316---26---40
13:00 -3.99015---24---50
14:00 -3.5939---18---60
15:00 -3.99212---26---40
16:00 -2.46924---34---30
17:00 -2.15619---27---20
18:00 -2.65823---42---0
19:00 -2.86125---40---0
20:00
21:00
22:00 -3.2626---13---0
23:00 -3.2583---10---0
minuit -2.9541---6---0

Graphique du 16-11-2019

 

Serveur OMMA